Location: Woodlawn
(38.3301°N, 89.0326°W)
Time: 00:19:06
(UTC+00:00)

Daily predictions for brighter satellites

Satellite Brightness Start Highest point End
(mag) Time Altitude Azimuth Time Altitude Azimuth Time Altitude Azimuth
Cosmos 1570 Rocket 4.1 01:33:47 10° NNW 01:39:02 70° ENE 01:44:16 10° SSE
Spot 2 3.9 01:35:13 10° SSE 01:39:13 66° ENE 01:43:14 10° N
H-2A R/B 2.4 01:36:37 10° NNE 01:40:30 40° E 01:44:23 10° S
Cosmos 2369 4.4 01:36:21 10° SSE 01:41:18 33° ESE 01:46:17 10° NE
Cosmos 1814 Rocket 4.1 01:36:32 10° NNW 01:41:41 82° WSW 01:46:48 10° SSE
Cosmos 1486 Rocket 4.3 01:37:47 10° S 01:42:50 48° ESE 01:47:54 10° NNE
Cosmos 1328 Rocket 3.7 01:38:47 10° S 01:42:58 53° E 01:47:11 10° NNE
MetOp-A 3.3 01:44:53 10° SSE 01:48:56 76° ENE 01:52:49 10° N
Cosmos 1697 Rocket 2.7 01:44:03 10° SSW 01:49:40 71° ESE 01:55:19 10° NNE
Cosmos 405 3.6 01:50:19 10° N 01:53:30 35° ENE 01:56:36 10° SE
Cosmos 389 Rocket 4.2 01:52:10 10° NNE 01:54:39 18° ENE 01:56:49 11° ESE
Cosmos 2360 4.2 01:50:37 10° SSW 01:56:15 76° ESE 02:01:57 10° NNE
CZ-4B R/B 1.9 01:54:34 10° NNE 01:57:29 34° E 02:00:21 10° SSE
ATLAS 2AS CENTAUR R/B 3.3 01:53:29 10° S 02:00:40 41° ESE 02:07:44 10° NE
Cosmos 1515 4.1 01:57:39 10° SSE 02:01:13 42° E 02:04:48 10° NNE
Cosmos 1151 Rocket 3.9 01:58:21 10° SSW 02:02:31 53° W 02:06:42 10° N
Cosmos 2297 Rocket 2.3 01:57:25 10° NNW 02:03:05 80° WSW 02:08:42 10° SSE
USA 186 3.3 02:01:09 10° SSW 02:03:12 24° W 02:05:12 10° NW
JB-3 4.4 01:59:56 10° NNE 02:04:06 80° ESE 02:08:14 10° S
NOSS 3-4 (A) 4.0 02:00:01 10° SW 02:05:36 60° NW 02:11:34 10° NNE
NOSS 3-4 (C) 3.9 02:00:03 10° SW 02:05:39 61° NW 02:11:39 10° NNE
OBJECT-B 3.3 02:04:15 10° SW 02:06:19 18° W 02:08:22 10° NW
COBE Rocket 4.0 02:01:33 10° S 02:06:40 85° W 02:11:41 10° NNW
Cosmos 1340 2.8 02:07:11 10° S 02:10:48 50° E 02:14:25 10° NNE
CZ-4 R/B 4.3 02:08:55 10° WSW 02:10:53 13° W 02:12:51 10° WNW
Cosmos 1933 Rocket 4.5 02:07:40 10° NNE 02:11:42 32° ENE 02:14:37 16° SE
Cosmos 1503 Rocket 4.2 02:07:06 10° S 02:12:09 51° ESE 02:17:18 10° NNE
Cosmos 1666 Rocket 4.1 02:09:27 10° NNW 02:13:48 61° W 02:18:10 10° S
Resurs 1-3 3.8 02:09:53 10° S 02:14:15 72° W 02:18:38 10° NNW
SJ-6B 4.3 02:13:26 10° SSW 02:16:56 34° W 02:20:23 10° NNW
H-2A R/B 4.0 02:13:46 10° SSW 02:17:50 37° W 02:21:48 10° NNW
Cosmos 1315 Rocket 3.6 02:15:17 10° NNW 02:19:13 50° W 02:23:05 10° S
SJ 16-02 2.0 02:15:43 11° SSE 02:19:23 34° E 02:23:20 10° NE
SL-16 R/B 3.8 02:18:47 14° ESE 02:19:33 14° E 02:22:19 10° ENE
Cosmos 1072 Rocket 4.4 02:14:05 10° S 02:20:07 68° E 02:26:11 10° NNE
Cosmos 1633 Rocket 3.5 02:17:27 10° NNW 02:21:46 61° W 02:26:02 10° S
SPOT 1/Viking Rocket 3.7 02:22:07 16° SSE 02:26:14 60° ENE 02:31:20 10° N
Cosmos 1743 2.8 02:24:12 10° N 02:27:56 56° E 02:30:10 22° SSE
BREEZE M DEB (TANK) 4.5 02:28:24 10° NW 02:32:13 41° NNE 02:44:27 10° ESE
Cosmos 1470 Rocket 3.6 02:29:07 10° N 02:33:26 81° W 02:37:01 15° S
Meteor 1-27 Rocket 3.9 02:28:44 10° SSW 02:34:28 80° W 02:40:22 10° N
OAO 3 Rocket 3.5 02:34:14 10° W 02:38:59 51° S 02:41:32 25° SE
Cosmos 2278 3.8 02:34:18 10° S 02:39:46 54° ESE 02:45:18 10° NNE
Cosmos 2219 3.5 02:37:07 10° NNW 02:42:41 63° WSW 02:47:00 17° S
Resurs 01 Rocket 1.8 02:39:24 17° S 02:42:47 73° WSW 02:47:12 10° NNW
Cosmos 1515 Rocket 4.1 02:39:24 10° SSW 02:43:41 59° W 02:48:02 10° N
Ariane Rocket 2.9 02:40:48 20° SSE 02:44:23 84° ENE 02:49:29 10° NNW
SPOT 5 4.0 02:43:22 22° ESE 02:45:46 32° ENE 02:50:19 10° N
Terra 3.4 02:44:34 17° E 02:46:12 20° ENE 02:49:41 10° NNE
Cosmos 2034 Rocket 4.0 02:42:41 12° S 02:48:37 73° E 02:54:57 10° N
Cosmos 2082 3.7 02:43:44 10° NNW 02:49:22 74° ENE 02:52:31 27° SSE
Cosmos 921 Rocket 3.1 02:46:23 10° N 02:50:52 64° ENE 02:52:48 32° SE
ISS -1.3 02:48:45 10° NNW 02:51:00 16° NNE 02:53:04 11° ENE
Cosmos 2263 Rocket 3.0 02:46:33 10° N 02:51:43 37° ENE 02:54:16 25° ESE
Cosmos 1378 4.0 02:52:06 30° E 02:52:10 31° E 02:55:26 10° NNE
Meteor 1-11 Rocket 4.4 02:47:02 10° NNW 02:52:52 56° W 02:58:21 11° S
CARTOSAT-1 3.5 02:54:34 33° SSE 02:56:25 70° ENE 03:00:43 10° N
Cosmos 2228 Rocket 3.1 02:58:46 32° SSE 03:00:44 62° E 03:05:15 10° NNE
Cosmos 1869 Rocket 3.8 02:57:26 10° N 03:01:51 54° E 03:03:11 39° SE
Okean 1 3.3 03:02:18 26° SSW 03:04:27 80° W 03:08:29 10° N
Cosmos 2344 4.1 02:58:25 10° SW 03:05:57 60° NW 03:13:23 10° NNE
Cosmos 1536 4.1 03:02:28 10° NNW 03:06:12 37° W 03:08:52 17° SSW
NOSS 2-1 (C) 3.3 03:07:57 43° ENE 03:07:57 43° ENE 03:10:22 10° NE
RESURS DK-1 2.7 03:05:34 10° SSW 03:09:38 65° WNW 03:13:45 10° NNE
Cosmos 2227 Rocket 3.6 03:05:08 10° NW 03:10:05 32° WSW 03:14:18 13° SSW
Cosmos 783 Rocket 4.5 03:05:38 10° NNW 03:10:49 71° ENE 03:12:43 39° SE
SL-4 R/B 2.5 03:08:39 10° WNW 03:13:02 52° SW 03:13:57 43° S
Cosmos 1980 Rocket 3.2 03:09:30 10° SW 03:14:52 46° WNW 03:20:18 10° N
USA 245 4.4 03:12:37 30° S 03:15:43 84° WSW 03:22:06 10° NNW
NOSS 2-1 (D) 3.0 03:18:12 59° NE 03:18:12 59° NE 03:20:50 10° NE
Cosmos 1777 Rocket 4.0 03:13:04 13° SSW 03:17:42 79° WNW 03:22:57 10° NNE
Spot 2 Rocket 3.5 03:16:25 41° SE 03:18:03 67° ENE 03:23:04 10° N
SPOT 3 Rocket 3.6 03:18:44 33° S 03:21:05 71° WSW 03:26:14 10° NNW
Cosmos 1707 Rocket 3.6 03:22:35 53° ESE 03:23:03 56° E 03:27:22 10° NNE
Cosmos 2322 Rocket 2.7 03:23:15 36° ESE 03:23:28 37° ESE 03:28:34 10° NE
Cosmos 773 Rocket 3.9 03:18:57 10° NNW 03:24:11 88° WSW 03:25:48 45° SSE
ARIANE 5 R/B 3.4 03:23:46 36° E 03:24:17 37° ENE 03:28:25 10° N
BREEZE-M DEB (TANK) 4.1 03:22:44 10° NNW 03:24:44 20° NNE 03:26:20 16° ENE
USA 215 4.1 03:21:10 10° ENE 03:25:34 28° ESE 03:25:34 28° ESE
Cosmos 1428 Rocket 4.5 03:20:55 10° N 03:27:14 70° E 03:29:36 40° SSE
Cosmos 2333 Rocket 4.3 03:31:12 11° ENE 03:31:12 11° ENE 03:31:48 10° ENE
Meteor 2-4 Rocket 3.7 03:28:29 37° S 03:30:54 79° E 03:36:36 10° NNE
Cosmos 44 Rocket 3.6 03:30:59 10° NNW 03:35:34 50° NE 03:36:16 46° E
Cosmos 1975 2.7 03:32:14 10° N 03:36:17 74° E 03:36:17 74° E
Helios 1A Rocket 3.4 03:43:33 46° WSW 03:44:00 48° W 03:47:52 10° NNW
Cosmos 158 Rocket 3.9 03:42:32 10° NNW 03:47:44 87° ENE 03:48:35 64° SSE
Cosmos 2219 Rocket 4.3 03:49:49 11° ENE 03:49:49 11° ENE 03:50:28 10° ENE
Cosmos 1092 Rocket 4.0 03:42:23 10° N 03:48:32 74° W 03:50:43 42° SSW
Cosmos 1634 Rocket 4.0 03:48:30 35° SSW 03:51:19 76° W 03:57:30 10° N
ATLAS 2AS CENTAUR R/B 4.0 03:44:08 10° WSW 03:51:35 46° NW 03:58:51 10° NNE
USA 81 4.0 03:51:32 53° SSW 03:52:47 81° W 03:58:05 10° N
ERS-1 Rocket 3.1 03:52:28 52° SSW 03:53:27 65° WSW 03:58:29 10° NNW
Cosmos 2227 4.1 03:48:54 10° NNW 03:54:42 82° ENE 03:55:45 61° SE
Cosmos 1733 Rocket 3.1 03:51:49 10° N 03:56:04 71° ENE 03:56:04 71° ENE
Cosmos 2142 Rocket 4.4 03:54:38 51° SSE 03:56:21 77° E 04:02:46 10° N
Meteor 2-15 Rocket 4.3 03:56:14 55° SSE 03:57:36 77° E 04:03:41 10° N
SJ 16-02 3.8 03:54:51 10° WSW 03:58:00 19° WNW 04:01:12 10° NNW
SL-16 R/B 2.3 04:00:33 36° SW 04:02:55 72° WNW 04:08:37 10° NNE
Cosmos 2237 4.1 04:04:12 65° S 04:05:02 80° ESE 04:10:46 10° NNE
Cosmos 1538 Rocket 3.8 04:00:06 10° NNW 04:05:21 87° ENE 04:05:40 79° SSE
Cosmos 1862 Rocket 3.6 04:05:58 76° WNW 04:05:58 76° WNW 04:10:21 10° N
Geosat 4.4 04:09:12 49° ENE 04:09:34 50° ENE 04:14:25 10° NNW
Cosmos 1441 Rocket 4.3 04:10:51 41° N 04:10:51 41° N 04:13:22 10° N
Cosmos 1346 Rocket 4.0 04:11:56 36° W 04:12:10 36° WNW 04:15:54 10° N
Cosmos 2026 Rocket 4.4 04:07:20 10° NNW 04:13:20 55° W 04:15:15 40° SW
Cosmos 1655 Rocket 4.4 04:12:29 10° N 04:18:27 45° ENE 04:18:59 44° E
ATLAS 3B R/B 2.9 04:12:52 10° NNW 04:20:20 77° ENE 04:22:21 53° SE
Cosmos 1937 Rocket 4.2 04:23:07 43° ENE 04:23:07 43° ENE 04:27:08 10° NNE
Cosmos 923 Rocket 4.4 04:18:15 10° N 04:23:29 54° ENE 04:23:29 54° ENE
Terra 2.7 04:23:27 39° WSW 04:23:39 39° W 04:28:07 10° NNW
SPOT 5 4.4 04:22:34 27° WSW 04:23:43 29° W 04:28:14 10° NW
Cosmos 2360 Rocket 2.0 04:27:31 83° ESE 04:27:32 83° ESE 04:33:13 10° NNE
ISS -1.2 04:24:47 10° NW 04:25:58 20° NW 04:25:58 20° NW
Meteor 1-13 Rocket 4.1 04:34:10 76° WSW 04:34:28 79° W 04:40:03 10° N
Cosmos 2263 Rocket 3.5 04:30:47 10° NW 04:35:25 27° WSW 04:35:57 27° WSW
Okean 1-7 3.9 04:44:36 48° N 04:44:36 48° N 04:47:47 10° N
Cosmos 2112 Rocket 4.5 04:38:51 10° N 04:43:44 51° NE 04:43:44 51° NE
Cosmos 1680 Rocket 3.8 04:39:46 10° NNW 04:44:38 60° NE 04:44:38 60° NE
Cosmos 2266 Rocket 3.8 04:43:10 10° N 04:49:24 84° E 04:49:37 82° SE
Cosmos 1898 Rocket 3.8 04:52:43 60° WNW 04:52:50 60° WNW 04:58:06 10° N
Iridium 4 Rocket 3.7 04:48:57 10° N 04:52:48 60° N 04:52:48 60° N
Cosmos 1818 4.1 04:49:18 10° NNW 04:54:36 51° NE 04:54:36 51° NE
Meteor 1-12 Rocket 4.3 04:54:29 10° NNW 05:00:19 73° W 05:00:19 73° W
ATLAS CENTAUR R/B 2.8 04:57:50 10° NNW 05:01:48 39° NNE 05:01:48 39° NNE
Cosmos 2322 Rocket 3.8 05:04:59 21° W 05:07:31 29° WNW 05:12:24 10° N
USA 215 3.4 05:03:32 10° NE 05:10:03 71° NW 05:12:52 36° WSW
Cosmos 2322 3.9 05:13:04 64° NE 05:13:04 64° NE 05:17:57 10° NNE
Cosmos 2333 Rocket 2.3 05:13:10 73° NW 05:13:10 73° NW 05:18:31 10° NNE
ADEOS Rocket 3.5 05:13:15 42° ENE 05:13:24 42° ENE 05:18:55 10° N
Cosmos 1844 Rocket 2.9 05:09:44 10° NNW 05:14:32 61° WNW 05:14:32 61° WNW
SL-08 ROCKET BODY 4.4 05:24:01 10° N 05:29:27 68° NE 05:29:27 68° NE
Cosmos 2219 Rocket 2.4 05:31:30 66° NNW 05:31:30 66° NNW 05:36:36 10° NNE
Cosmos 1844 4.4 05:34:17 10° NNW 05:38:56 46° WNW 05:38:56 46° WNW
Cosmos 1553 Rocket 4.0 05:42:09 67° ENE 05:42:09 67° ENE 05:47:55 10° NNE
USA 267 4.1 05:38:54 23° E 05:42:45 46° NE 05:48:56 10° NW
Cosmos 1244 Rocket 4.4 05:40:41 10° N 05:46:51 82° NE 05:46:51 82° NE
ALOS 2 4.1 05:51:33 32° NW 05:51:33 32° NW 05:54:04 10° NNW
Nadezhda 2 Rocket 4.4 05:43:58 10° N 05:49:49 81° NNW 05:49:49 81° NNW
NOSS 0 Rocket 4.1 05:56:55 62° ENE 05:56:55 62° ENE 06:02:29 10° NNE
Okean 2 Rocket 4.3 05:54:30 10° N 05:57:28 40° N 05:57:28 40° N
Cosmos 2237 Rocket 2.9 06:02:09 44° ENE 06:02:09 44° ENE 06:06:32 10° NNE
COSMOS 2428 3.2 06:05:46 52° WNW 06:05:46 52° WNW 06:11:11 10° NNE
Cosmos 1953 4.4 06:05:07 10° N 06:07:09 25° NNE 06:07:09 25° NNE
Resurs 1-4 Rocket 4.4 06:08:05 10° ENE 06:10:14 13° E 06:10:14 13° E
ATLAS 3B R/B 4.4 06:05:03 10° WNW 06:09:35 21° W 06:09:35 21° W
CZ-4C R/B 3.0 06:05:13 10° NNW 06:12:49 84° ENE 06:14:45 58° SE
Cosmos 2298 Rocket 4.4 06:16:30 61° NNE 06:16:30 61° NNE 06:20:51 10° NNE
NOSS 3-1 (A) 4.2 06:07:49 10° NNW 06:15:36 77° ENE 06:18:26 48° SE
NOSS 3-1 (C) 4.1 06:14:54 10° NW 06:22:41 64° WSW 06:23:27 62° SW
Cosmos 1745 Rocket 3.9 06:17:26 10° N 06:23:37 80° ENE 06:23:37 80° ENE
Okean 1 Rocket 4.2 06:30:05 10° N 06:33:02 41° N 06:33:02 41° N
Cosmos 2278 Rocket 2.3 06:30:37 10° NNW 06:36:05 73° NE 06:36:05 73° NE
Cosmos 371 Rocket 4.1 06:41:23 48° NNW 06:41:23 48° NNW 06:45:14 10° N
ATLAS CENTAUR R/B 4.2 06:37:19 10° WNW 06:37:47 12° WNW 06:37:47 12° WNW
Lacrosse 5 2.7 06:43:42 43° ENE 06:43:42 43° ENE 06:47:18 10° NE
Cosmos 883 Rocket 4.3 06:42:27 84° SE 06:42:37 86° E 06:48:59 10° N
USA 32 4.2 06:44:30 69° NNE 06:44:30 69° NNE 06:49:09 10° N
ATLAS 5 CENTAUR R/B 2.7 06:37:06 10° NW 06:45:39 70° NNW 06:45:39 70° NNW
Cosmos 304 Rocket 4.3 06:49:36 56° N 06:49:36 56° N 06:53:26 10° NNE
SL-16 R/B 3.0 06:49:47 40° E 06:49:47 40° E 06:54:47 10° NE
Cosmos 1980 4.0 06:53:24 55° WNW 06:53:24 55° WNW 06:58:55 10° NNE
SME Rocket 4.2 06:58:11 40° ENE 06:58:11 40° ENE 07:02:30 10° N
ADEOS Rocket 4.4 07:00:12 22° WNW 07:00:12 22° WNW 07:03:42 10° NW
Meteor 2-10 Rocket 3.6 06:55:43 10° N 07:01:19 76° ENE 07:01:19 76° ENE
SL-16 R/B 3.9 07:01:09 18° ESE 07:04:54 34° ENE 07:10:25 10° N
MOZ.5/SAFIR/RUBIN 5/SL-8 4.0 07:09:27 67° NNE 07:09:27 67° NNE 07:13:44 10° N
Cosmos 1455 Rocket 3.7 07:07:08 10° N 07:10:49 56° NNE 07:10:49 56° NNE
EO 1 Delta rocket 4.1 07:08:41 10° N 07:13:11 67° WNW 07:13:11 67° WNW
Meteor 1-24 Rocket 3.7 07:14:10 65° ESE 07:14:30 67° E 07:19:57 10° NNE
Cosmos 1709 Rocket 3.9 07:11:54 10° NNW 07:17:54 61° W 07:18:05 61° W
Cosmos 2315 Rocket 4.1 07:17:55 56° WSW 07:18:29 58° W 07:24:47 10° N
COSMOS 2455 3.4 07:18:09 43° SE 07:18:45 44° ESE 07:24:26 10° NE
Cosmos 1975 Rocket 3.7 07:25:12 49° NNW 07:25:12 49° NNW 07:28:44 10° N
USA 267 3.4 07:26:11 51° WSW 07:26:11 51° WSW 07:32:02 10° NW
CZ-2D R/B 2.2 07:20:25 10° NNE 07:25:45 66° ESE 07:26:09 63° SE
Cosmos 1025 Rocket 3.6 07:27:37 53° NNW 07:27:37 53° NNW 07:31:03 10° N
Lacrosse 5 rocket 2.1 07:36:40 48° NNE 07:36:40 48° NNE 07:39:45 10° NE
USA 229 DEB 4.3 07:32:38 10° NW 07:39:43 44° WSW 07:40:07 44° WSW
USA 229 4.2 07:32:43 10° NW 07:39:48 45° WSW 07:40:15 44° WSW
Meteor 2-5 Rocket 3.8 07:40:07 58° WSW 07:40:41 61° W 07:46:20 10° N
Cosmos 2237 Rocket 3.8 07:43:57 21° WNW 07:45:22 23° NW 07:49:52 10° N
CZ-4 R/B 3.7 07:45:14 10° N 07:49:51 69° WNW 07:49:56 69° W
UNK 4.1 07:48:50 46° SE 07:49:55 60° ENE 07:54:28 10° N
Resurs 1-4 Rocket 2.0 07:45:23 10° N 07:50:38 71° WNW 07:51:19 62° WSW
EO 1 Del DPAF 4.3 07:49:35 10° NNE 07:52:35 35° E 07:52:35 35° E
Helios 1A 4.4 07:51:32 22° ESE 07:53:33 34° ENE 07:57:23 10° N
NOSS 3-3 (A) 4.4 07:52:29 37° SSE 07:53:48 44° ESE 07:59:33 10° NE
NOSS 3-3 (C) 4.4 07:52:34 37° SSE 07:53:55 43° ESE 07:59:37 10° NE
Nadezhda 1 Rocket 4.1 07:53:45 41° S 07:56:04 75° E 08:02:22 10° N
Cosmos 1544 Rocket 3.5 07:53:43 10° NNW 07:57:54 68° WNW 07:57:54 68° WNW
CZ-4C R/B 4.3 07:55:12 10° WNW 07:59:52 22° W 07:59:52 22° W
Cosmos 614 Rocket 4.4 07:56:11 10° N 08:01:19 61° ENE 08:04:35 22° SE
IDEFIX/ARIANE 42P 2.8 07:57:23 10° NNE 08:02:38 63° ESE 08:04:17 42° SSE
Cosmos 1943 Rocket 2.1 07:57:27 10° NNW 08:03:09 79° WSW 08:05:08 42° S
ADEOS II 2.1 07:58:42 10° NNE 08:03:58 80° ESE 08:05:23 50° S
Meteor 1-28 Rocket 3.8 08:06:01 45° ESE 08:06:42 53° ENE 08:10:20 10° N
Cosmos 2297 3.6 08:04:51 10° NNW 08:10:38 89° WSW 08:13:59 26° SSE
MOS 1 Rocket 2.9 08:10:22 62° SSE 08:11:04 90° N 08:15:22 10° NNW
IRS-1D 4.4 08:08:36 10° NNE 08:13:43 46° E 08:16:21 26° SSE
Cosmos 2251 Rocket 4.4 08:09:46 10° N 08:14:51 48° ENE 08:19:58 10° SE
Cosmos 2278 Rocket 4.3 08:17:00 10° WNW 08:17:53 12° WNW 08:17:53 12° WNW
Lacrosse 5 3.5 08:22:52 17° WNW 08:25:34 26° NW 08:29:50 10° NNE
NPP 4.3 08:21:02 10° N 08:26:03 41° WNW 08:27:34 34° WSW
Cosmos 1455 3.2 08:24:58 10° NNW 08:27:35 31° WNW 08:27:35 31° WNW
Cosmos 2369 Rocket 2.4 08:27:47 10° NNW 08:33:22 69° ENE 08:38:56 10° SSE
Cosmos 2154 Rocket 4.0 08:27:11 10° NNW 08:33:27 63° W 08:36:42 29° SSW
SL-16 R/B 3.5 08:31:39 22° W 08:33:44 28° WNW 08:38:33 10° N
Cosmos 1656 Rocket 4.3 08:29:43 10° NNW 08:35:03 55° ENE 08:40:20 10° SE
Cosmos 1271 Rocket 2.8 08:33:52 10° NNW 08:37:38 56° W 08:38:06 51° SW
Meteor 1-21 Rocket 4.1 08:35:30 30° S 08:38:25 87° W 08:44:01 10° N
FALCON 9 R/B 4.4 08:15:02 10° WNW 08:41:21 44° SW 08:48:53 10° SSE
Cosmos 2228 2.9 08:39:39 10° NNW 08:44:00 72° W 08:45:55 32° S
BREEZE-M DEB (TANK) 2.9 08:42:55 30° WSW 08:45:22 78° NW 08:48:04 10° NE
SL-16 R/B 3.1 08:46:14 28° SW 08:48:22 36° W 08:54:03 10° NNW
Cosmos 1603 3.7 08:53:54 27° SSW 08:57:06 76° WNW 09:02:47 10° NNE
Cosmos 407 Rocket 3.9 08:52:26 10° NNW 08:57:44 66° ENE 09:02:55 10° SSE
Cosmos 1371 Rocket 4.2 08:55:16 20° S 08:58:50 70° ESE 09:03:59 10° NNE
Cosmos 2058 Rocket 4.1 08:56:37 10° N 09:00:49 45° E 09:04:59 10° SSE
MOS 1-B Rocket 4.1 08:58:37 10° SSE 09:04:11 70° ENE 09:09:53 10° N
COSMOS 2455 4.0 09:01:17 17° W 09:04:49 30° NW 09:10:03 10° N
Cosmos 1140 Rocket 3.6 08:59:53 10° NNW 09:05:09 81° ENE 09:10:23 10° SSE
CZ-2D R/B 4.0 09:02:05 10° NNW 09:05:10 16° WNW 09:07:28 12° W
GPS 2-04 Rocket1 2.9 09:05:26 33° SSW 09:06:19 41° SSE 09:09:38 10° E
SeaSat 1 4.2 09:03:22 10° NE 09:07:27 26° ESE 09:11:31 10° SSE
DNEPR-1 R/B 3.9 09:06:04 26° WSW 09:08:10 51° NW 09:12:34 10° NNE
Cosmos 1328 4.0 09:06:30 28° SW 09:08:17 51° W 09:12:11 10° N
Helios 1B rocket 2.3 09:10:11 10° N 09:14:15 84° WNW 09:17:16 18° SSW
Lacrosse 5 rocket 3.8 09:13:57 10° NW 09:15:37 12° NNW 09:17:18 10° N
Cosmos 1241 Rocket 4.4 09:12:18 18° SSW 09:16:59 89° WNW 09:23:14 10° NNE
Cosmos 2218 Rocket 4.0 09:12:12 10° N 09:18:29 87° W 09:24:49 10° S
Cosmos 1825 3.5 09:17:39 10° SSE 09:21:05 37° E 09:24:33 10° NNE
Cosmos 1606 Rocket 4.0 09:17:00 10° NNW 09:21:08 41° W 09:24:16 16° SSW
Cosmos 1023 Rocket 4.5 09:17:39 10° NNW 09:22:53 66° WSW 09:28:03 10° S
CZ-3 R/B 4.3 08:31:41 10° WSW 09:23:58 63° S 09:36:04 10° ESE
OAO 2 Rocket 3.5 09:21:48 18° WSW 09:25:19 54° S 09:30:07 10° E
Cosmos 1943 4.0 09:23:26 17° WSW 09:27:19 38° WNW 09:32:37 10° N
Cosmos 2181 Rocket 4.2 09:25:17 13° SSW 09:30:52 56° W 09:36:55 10° N
Cosmos 1959 Rocket 4.5 09:25:01 10° N 09:31:13 72° W 09:37:20 10° S
Cosmos 1624 Rocket 4.1 09:27:34 15° SSW 09:31:59 63° WNW 09:37:16 10° NNE
Meteor 1-11 4.3 09:26:55 11° SSW 09:32:33 67° W 09:38:19 10° N
Lacrosse 4 Rocket 1.6 09:31:42 12° SSW 09:35:44 72° ESE 09:39:57 10° NNE
ARIANE 5 R/B 2.7 09:30:48 10° NNE 09:35:51 73° ESE 09:40:50 10° S
IRS-1C 4.2 09:30:48 10° NNE 09:36:11 89° ESE 09:41:30 10° SSW
Cosmos 2098 4.1 09:33:12 10° N 09:36:11 89° NW 09:39:17 10° S
Cosmos 1408 2.9 09:35:11 14° SSW 09:38:09 48° W 09:41:40 10° N
ATLAS 3B CENTAUR R/B 3.8 09:38:54 10° SSE 09:40:02 11° SE 09:41:18 10° SE
Cosmos 1892 2.9 09:37:51 11° SSW 09:41:20 53° W 09:45:02 10° N
IDEFIX/ARIANE 42P 4.4 09:38:31 10° NNW 09:41:37 16° WNW 09:44:44 10° W
ADEOS II 4.1 09:40:42 10° NW 09:42:55 13° WNW 09:45:09 10° W
Cosmos 2056 Rocket 3.9 09:39:27 13° SW 09:43:57 48° WNW 09:49:03 10° N
Okean 1-7 Rocket 3.5 09:39:57 10° SSW 09:44:21 75° W 09:48:46 10° N
Cosmos 1484 Rocket 4.1 09:42:10 10° NNE 09:45:51 40° E 09:49:33 10° S
FENGYUN 3A 3.8 09:42:05 10° N 09:47:23 59° WNW 09:52:39 10° SSW
ALOS 2.4 09:45:24 10° N 09:50:00 60° WNW 09:54:35 10° SSW
CZ-2C R/B 4.3 09:53:29 10° SE 09:58:13 38° ENE 10:03:03 10° N
Cosmos 1602 Rocket 3.7 09:53:50 10° S 09:58:17 83° E 10:02:44 10° N
Cosmos 1190 Rocket 4.3 09:55:29 10° NNW 10:00:35 49° WSW 10:05:39 10° S
ATLAS 2A CENTAUR R/B 3.9 09:54:00 10° WSW 10:07:55 39° SSW 10:13:40 10° SE
CZ-2C R/B 3.0 10:04:08 10° N 10:08:54 42° WNW 10:13:33 10° SW
YAOGAN 6 4.0 10:06:09 10° NNE 10:09:35 41° E 10:13:01 10° S
